When you browse on this site, cookies collect data to enhance your experience and personalize the content and advertising you see.
Visit our Privacy Policy to learn more. By continuing to use the site, you agree to this use of cookies and data.
  • In Switzerland
  • List of Countries
  • For 7 days
  • Water Temperature
  • Satellite Maps
  • Weather Map
  • Weather Widgets
  • user-avatar
    Login

    Hourly Weather Eisenach

    Today, 23 May, Thursday

    Time Temperature Precipitation Wind Pressure Humidity
    00:00 +9°C° 0 mm 1 mps 743 mmHg 93%
    01:00 +8°C° 0 mm 1 mps 743 mmHg 92%
    02:00 +8°C° 0 mm 1 mps 743 mmHg 92%
    03:00 +8°C° 0 mm 1 mps 743 mmHg 92%
    04:00 +8°C° 0 mm 1 mps 744 mmHg 93%
    05:00 +9°C° 0 mm 1 mps 744 mmHg 89%
    06:00 +11°C° 0 mm 1 mps 744 mmHg 84%
    07:00 +12°C° 0 mm 1 mps 744 mmHg 78%
    08:00 +14°C° 0 mm 1 mps 744 mmHg 71%
    09:00 +16°C° 0 mm 2 mps 744 mmHg 64%
    10:00 +18°C° 0 mm 2 mps 744 mmHg 57%
    11:00 +18°C° 0 mm 2 mps 743 mmHg 57%
    12:00 +18°C° 0 mm 2 mps 743 mmHg 57%
    13:00 +19°C° 0 mm 2 mps 743 mmHg 57%
    14:00 +19°C° 0 mm 2 mps 743 mmHg 57%
    15:00 +20°C° 0 mm 1 mps 742 mmHg 57%
    16:00 +20°C° 0 mm 1 mps 742 mmHg 57%
    17:00 +20°C° 0 mm 1 mps 742 mmHg 63%
    18:00 +17°C° 0 mm 0 mps 742 mmHg 68%
    19:00 +16°C° 0 mm 0 mps 741 mmHg 73%
    20:00 +15°C° 0 mm 0 mps 741 mmHg 77%
    21:00 +14°C° 0 mm 1 mps 742 mmHg 80%
    22:00 +12°C° 0 mm 1 mps 742 mmHg 84%
    23:00 +12°C° 0 mm 1 mps 742 mmHg 85%

    Tomorrow, 24 May, Friday

    Time Temperature Precipitation Wind Pressure Humidity
    00:00 +11°C° 0 mm 1 mps 742 mmHg 87%
    01:00 +11°C° 0 mm 1 mps 742 mmHg 89%
    02:00 +11°C° 0 mm 1 mps 741 mmHg 89%
    03:00 +10°C° 0 mm 1 mps 741 mmHg 90%
    04:00 +10°C° 0 mm 1 mps 741 mmHg 91%
    05:00 +12°C° 0 mm 1 mps 741 mmHg 87%
    06:00 +13°C° 0 mm 1 mps 741 mmHg 82%
    07:00 +15°C° 0 mm 1 mps 741 mmHg 78%
    08:00 +16°C° 0 mm 1 mps 741 mmHg 73%
    09:00 +19°C° 0 mm 1 mps 741 mmHg 67%
    10:00 +20°C° 0 mm 2 mps 741 mmHg 62%
    11:00 +20°C° 0.1 mm 2 mps 741 mmHg 60%
    12:00 +22°C° 0.1 mm 1 mps 740 mmHg 58%
    13:00 +23°C° 0.1 mm 1 mps 740 mmHg 55%
    14:00 +23°C° 0.3 mm 1 mps 740 mmHg 58%
    15:00 +22°C° 0.3 mm 1 mps 739 mmHg 61%
    16:00 +21°C° 0.3 mm 2 mps 739 mmHg 63%
    17:00 +21°C° 0.4 mm 1 mps 739 mmHg 71%
    18:00 +20°C° 0.4 mm 1 mps 739 mmHg 79%
    19:00 +19°C° 0.4 mm 1 mps 738 mmHg 86%
    20:00 +16°C° 0 mm 1 mps 739 mmHg 88%
    21:00 +15°C° 0 mm 1 mps 739 mmHg 90%
    22:00 +13°C° 0 mm 1 mps 739 mmHg 91%
    23:00 +13°C° 0 mm 1 mps 739 mmHg 93%

    Day after tomorrow, 25 May, Saturday

    Time Temperature Precipitation Wind Pressure Humidity
    00:00 +12°C° 0 mm 1 mps 739 mmHg 94%
    01:00 +12°C° 0 mm 1 mps 740 mmHg 95%
    02:00 +11°C° 0 mm 1 mps 740 mmHg 96%
    03:00 +11°C° 0 mm 1 mps 740 mmHg 97%
    04:00 +10°C° 0 mm 1 mps 740 mmHg 98%
    05:00 +11°C° 0 mm 1 mps 740 mmHg 96%
    06:00 +12°C° 0 mm 2 mps 740 mmHg 94%
    07:00 +12°C° 0 mm 2 mps 741 mmHg 93%
    08:00 +13°C° 0 mm 2 mps 741 mmHg 86%
    09:00 +14°C° 0 mm 2 mps 741 mmHg 80%
    10:00 +14°C° 0 mm 3 mps 741 mmHg 74%
    11:00 +14°C° 0 mm 3 mps 741 mmHg 72%
    12:00 +16°C° 0 mm 3 mps 741 mmHg 70%
    13:00 +16°C° 0 mm 3 mps 741 mmHg 68%
    14:00 +16°C° 0 mm 3 mps 741 mmHg 68%
    15:00 +16°C° 0 mm 3 mps 740 mmHg 68%
    16:00 +16°C° 0 mm 3 mps 740 mmHg 69%
    17:00 +16°C° 0 mm 3 mps 740 mmHg 73%
    18:00 +14°C° 0 mm 3 mps 740 mmHg 77%
    19:00 +14°C° 0 mm 2 mps 740 mmHg 82%
    20:00 +12°C° 0 mm 2 mps 741 mmHg 86%
    21:00 +11°C° 0 mm 1 mps 741 mmHg 90%
    22:00 +9°C° 0 mm 1 mps 741 mmHg 94%
    23:00 +9°C° 0 mm 1 mps 741 mmHg 94%

    26 May, Sunday

    Time Temperature Precipitation Wind Pressure Humidity
    00:00 +8°C° 0 mm 1 mps 741 mmHg 94%
    01:00 +8°C° 0 mm 1 mps 741 mmHg 95%
    02:00 +8°C° 0 mm 1 mps 741 mmHg 95%
    03:00 +8°C° 0 mm 1 mps 741 mmHg 95%
    04:00 +8°C° 0 mm 1 mps 740 mmHg 95%
    05:00 +9°C° 0 mm 1 mps 740 mmHg 91%
    06:00 +10°C° 0 mm 2 mps 740 mmHg 87%
    07:00 +12°C° 0 mm 2 mps 740 mmHg 83%
    08:00 +13°C° 0 mm 3 mps 740 mmHg 76%
    09:00 +16°C° 0 mm 3 mps 740 mmHg 70%
    10:00 +17°C° 0 mm 4 mps 740 mmHg 63%
    11:00 +18°C° 0 mm 4 mps 740 mmHg 61%
    12:00 +19°C° 0 mm 5 mps 739 mmHg 59%
    13:00 +20°C° 0 mm 5 mps 739 mmHg 57%
    14:00 +20°C° 0 mm 5 mps 739 mmHg 59%
    15:00 +20°C° 0 mm 4 mps 739 mmHg 61%
    16:00 +20°C° 0 mm 4 mps 738 mmHg 63%
    17:00 +20°C° 0 mm 3 mps 738 mmHg 68%
    18:00 +19°C° 0 mm 2 mps 738 mmHg 73%
    19:00 +19°C° 0 mm 1 mps 737 mmHg 78%
    20:00 +17°C° 0 mm 2 mps 737 mmHg 80%
    21:00 +16°C° 0 mm 2 mps 737 mmHg 82%
    22:00 +15°C° 0 mm 2 mps 737 mmHg 84%
    23:00 +14°C° 0 mm 2 mps 737 mmHg 86%

    27 May, Monday

    Time Temperature Precipitation Wind Pressure Humidity
    00:00 +14°C° 0 mm 2 mps 737 mmHg 88%
    01:00 +12°C° 0 mm 3 mps 736 mmHg 91%
    02:00 +13°C° 0 mm 2 mps 736 mmHg 92%
    03:00 +13°C° 0 mm 2 mps 736 mmHg 94%
    04:00 +12°C° 0 mm 2 mps 735 mmHg 96%
    05:00 +13°C° 0 mm 3 mps 735 mmHg 93%
    06:00 +14°C° 0 mm 4 mps 735 mmHg 90%
    07:00 +15°C° 0 mm 4 mps 735 mmHg 88%
    08:00 +16°C° 0 mm 5 mps 735 mmHg 84%
    09:00 +17°C° 0 mm 5 mps 734 mmHg 80%
    10:00 +19°C° 0 mm 6 mps 734 mmHg 76%
    11:00 +20°C° 0 mm 5 mps 734 mmHg 72%
    12:00 +21°C° 0 mm 5 mps 733 mmHg 68%
    13:00 +22°C° 0 mm 5 mps 733 mmHg 63%
    14:00 +21°C° 0.4 mm 5 mps 732 mmHg 68%
    15:00 +21°C° 0.4 mm 5 mps 732 mmHg 72%
    16:00 +20°C° 0.4 mm 5 mps 732 mmHg 77%
    17:00 +19°C° 0.3 mm 4 mps 732 mmHg 81%
    18:00 +17°C° 0.3 mm 3 mps 732 mmHg 86%
    19:00 +16°C° 0.3 mm 2 mps 731 mmHg 91%
    20:00 +15°C° 0 mm 2 mps 732 mmHg 92%
    21:00 +14°C° 0 mm 1 mps 732 mmHg 94%
    22:00 +12°C° 0 mm 0 mps 732 mmHg 95%
    23:00 +12°C° 0.1 mm 0 mps 732 mmHg 95%

    28 May, Tuesday

    Time Temperature Precipitation Wind Pressure Humidity
    00:00 +12°C° 0.1 mm 0 mps 732 mmHg 94%
    01:00 +12°C° 0.1 mm 0 mps 732 mmHg 94%
    02:00 +11°C° 0.1 mm 0 mps 732 mmHg 94%
    03:00 +11°C° 0.1 mm 0 mps 732 mmHg 95%
    04:00 +10°C° 0.1 mm 0 mps 732 mmHg 95%
    05:00 +11°C° 0.1 mm 0 mps 732 mmHg 94%
    06:00 +13°C° 0.1 mm 1 mps 732 mmHg 92%
    07:00 +14°C° 0.1 mm 1 mps 733 mmHg 91%
    08:00 +15°C° 0.3 mm 1 mps 733 mmHg 86%
    09:00 +15°C° 0.3 mm 1 mps 733 mmHg 81%
    10:00 +16°C° 0.3 mm 2 mps 733 mmHg 77%
    11:00 +18°C° 0.3 mm 1 mps 733 mmHg 75%
    12:00 +18°C° 0.3 mm 1 mps 733 mmHg 73%
    13:00 +18°C° 0.3 mm 1 mps 733 mmHg 72%
    14:00 +18°C° 0.2 mm 1 mps 733 mmHg 71%
    15:00 +19°C° 0.2 mm 1 mps 733 mmHg 71%
    16:00 +18°C° 0.2 mm 2 mps 733 mmHg 71%
    17:00 +17°C° 0.4 mm 2 mps 734 mmHg 78%
    18:00 +16°C° 0.4 mm 1 mps 734 mmHg 85%
    19:00 +15°C° 0.4 mm 1 mps 734 mmHg 91%
    20:00 +14°C° 0.1 mm 1 mps 735 mmHg 92%
    21:00 +13°C° 0.1 mm 1 mps 735 mmHg 93%
    22:00 +12°C° 0.1 mm 1 mps 736 mmHg 93%
    23:00 +11°C° 0 mm 1 mps 736 mmHg 93%
    Show more